Regional Weather Roundup
Issued by NWS Albany, NY

Home | Current Version | Previous Version | Text Only | Print | Product List | Glossary On
Versions: 1 2 3 4 5 6 7 8 9 10 11 12 13 14 15 16 17 18 19 20 21 22 23 24 25 26 27 28 29 30 31 32 33 34 35 36 37 38 39 40 41 42 43 44 45 46 47 48 49 50
000
ASUS41 KALY 291210
RWRALY

NEW YORK STATE HOURLY WEATHER ROUNDUP
NATIONAL WEATHER SERVICE ALBANY NY
800 AM EDT SAT APR 29 2017

NOTE: "FAIR" INDICATES FEW OR NO CLOUDS BELOW 12,000 FEET WITH NO
SIGNIFICANT WEATHER AND/OR NO OBSTRUCTIONS TO VISIBILITY.

NYZ032-033-038>043-046>054-057>066-NYZ062>081-082-084-291300-
EAST


CITY           SKY/WX    TMP DP  RH WIND       PRES   REMARKS
ALBANY         CLOUDY    65  52  62 CALM      29.95F
GLENS FALLS    CLOUDY    65  49  56 S9        29.95S
POUGHKEEPSIE   CLOUDY    64  54  69 CALM      29.96S
NEWBURGH       PTSUNNY   64  57  77 CALM      29.99R
MONTGOMERY     CLOUDY    63  54  72 SW3       29.96F
WHITE PLAINS   PTSUNNY   66  58  75 CALM      29.97F
ISLIP          CLOUDY    62  61  96 NW7       29.98S
NEW YORK CITY  PTSUNNY   67  63  87 E5        29.97S
CENTRAL PARK   CLOUDY    67  65  93 CALM      29.99F
$$

NYZ005>009-017-018-044>046-055-056-291300-
CENTRAL


CITY           SKY/WX    TMP DP  RH WIND       PRES   REMARKS
FULTON         LGT RAIN  55  48  77 W5        30.01R
SYRACUSE       CLOUDY    59  49  69 NW10      30.00R
ROME           CLOUDY    59  54  83 CALM      30.00R
ELMIRA         CLOUDY    60  50  69 W3        30.02R
BINGHAMTON     CLOUDY    59  47  64 SW5       30.03R
MONTICELLO     CLOUDY    57  52  82 CALM      30.01S
$$

NYZ026>034-041>043-087-291300-
NORTH


CITY           SKY/WX    TMP DP  RH WIND       PRES   REMARKS
WATERTOWN      CLOUDY    56  48  74 W8        29.99R
FORT DRUM      NOT AVBL
OGDENSBURG     FAIR      59  46  63 SW7       29.96R
MASSENA        MOSUNNY   60  45  57 W15       29.96R
SARANAC LAKE   CLOUDY    58  45  62 SW10G18   29.94R
PLATTSBURGH    PTSUNNY   59  46  62 CALM      29.91F
$$

NYZ001>004-010>016-019>021-085-291300-
WEST


CITY           SKY/WX    TMP DP  RH WIND       PRES   REMARKS
NIAGARA FALLS  CLOUDY    50  40  68 N13       30.05R
BUFFALO        CLOUDY    53  49  86 SW5       30.04R
DUNKIRK        CLOUDY    53  52  96 SW5       30.07R FOG
JAMESTOWN      CLOUDY    55  52  88 NW6       30.07R VSB 1
WELLSVILLE     CLOUDY    59  51  75 W5        30.07R
ROCHESTER      CLOUDY    59  47  64 NW8       30.04R
PENN YAN       CLOUDY    60  48  64 CALM      30.03R
$$

             KEY
       WCI = WIND CHILL INDEX
       VSB = VISIBILITY
       HX  = HEAT INDEX
$$



USA.gov is the U.S. government's official web portal to all federal, state and local government web resources and services.